Showing default

OPS 9327 (IDSCS 14), 2654

Orbit data source: Space-Track

OPS 9327 (IDSCS 14), 2654 is a payload satellite owned by USAF SSD (US) in GEO that was launched on Wed, 18 Jan 1967 UTC via a TITAN IIIC launch vehicle from the Air Force Eastern Test Range (AFETR). Payload-class satellites include a variety of spacecraft equipped with specific instruments for various scientific and technological missions. These include communications satellites like Starlink; space stations such as the ISS; scientific satellites like the Hubble; Earth observation satellites from companies like Planet Labs, Umbra, and HawkEye 360; GPS; miniature CubeSats for education and research; and military/defense satellites.

Loading next visibility...
Identifier
2654, 1967-003G
Orbit
GEO
Country
Flag of USUS
Related business
Manufacturer
Philco-Ford WDL
Mission
Non-operational spacecraft
Bus & Motor
IDCSP, Unknown motor
Mass
45 kg wet, 45 kg dry
Launch date (UTC)
1967-01-18 (59 years ago)
Launch vehicle
TITAN IIIC
Launch site
Air Force Eastern Test Range (AFETR)
Object type
Payload
Rocket body
Debris
Shape & HBR
Unknown
Radar Cross Section
Medium (>0.1 m² and <1 m²)

Expand to show TLE details & history
Last TLE update: 21 hours ago

TLE from 21 hours ago
0 OPS 9327 (IDSCS 14)
1 02654U 67003G   26125.61108829 -.00000087  00000-0  00000-0 0  9990
2 02654   8.0790  47.4950 0057097  47.8237 200.8239  1.07511332139012
Epoch: 2026-05-05T14:39Z
TLE epoch observation values (Epoch: 2026-05-05T14:39:58.028Z)
Latitude
-7.51778°
Longitude
-147.75805°
Altitude
34,087.192 km
Speed
3.13 km/s
True Right ascension
19h 42m 52s
True Declination
-7° 30' 36"
Sunlit
Object was in daylight at epoch
Visualization orbit readout
Latitude
Unknown
Longitude
Unknown
Altitude
Unknown
Speed
Unknown
Apparent Right ascension
Unknown
Apparent Declination
Unknown
Sunlit
N/A
Visualization observer readout
Local Sidereal Time
19:47:36
Azimuth
Unknown
Elevation
Unknown
Doppler factor
Unknown
Orbital elements
Apogee altitude
34,102.752 km
Perigee altitude
33,643.109 km
Semi-major axis
40,251.068 km
Eccentricity
0.00571
Inclination
8.079°
RAAN
47.495°
Arg. of periapsis
47.8237°
True anomaly
200.59285°
Mean anomaly
200.8239°
Eccentric anomaly
200.70822°
Mean motion
0.26877 °/min
Orbital period
1,339.45 mins
BSTAR
0
Loading maneuver chart data...
Computing Atmospheric mass density...
Loading historical data...
Loading historical data...
Loading historical data...
Loading historical data...
Loading historical data...
Loading historical data...
Loading historical data...

Documentation

Showing up to 5 results
|